NKS107 KLAS-KLAX

Flight info

Callsign NKS107
Flight time N/A
Altitude 24000
Route RADYR2 BLAQQ SHTNR ANJLL4
Aircraft A320/M-SDE3FGHIRWY/LB1

Departure

Time N/A
Airport Harry Reid International Airport (KLAS)

Arrival

Time 2026-05-05 06:22
Airport Los Angeles International Airport (KLAX)
Time Latitude Longitude Altitude Speed Heading
2026-05-05 06:00 34.65452 -116.17664 23936 ft 357 kts 226°
2026-05-05 06:00 34.63735 -116.19846 23933 ft 356 kts 226°
2026-05-05 06:00 34.62035 -116.22006 23944 ft 356 kts 226°
2026-05-05 06:00 34.60314 -116.24187 23941 ft 357 kts 226°
2026-05-05 06:01 34.44185 -116.44567 23952 ft 356 kts 227°
2026-05-05 06:01 34.42582 -116.46867 23959 ft 356 kts 232°
2026-05-05 06:01 34.41177 -116.49324 23968 ft 358 kts 237°
2026-05-05 06:01 34.39967 -116.51945 23957 ft 359 kts 242°
2026-05-05 06:02 34.38829 -116.54675 23959 ft 360 kts 242°
2026-05-05 06:02 34.37722 -116.57363 23967 ft 360 kts 242°
2026-05-05 06:02 34.36599 -116.60088 23961 ft 361 kts 242°
2026-05-05 06:02 34.35487 -116.62791 23961 ft 361 kts 242°
2026-05-05 06:03 34.34366 -116.65508 23969 ft 358 kts 242°
2026-05-05 06:03 34.33242 -116.68240 23970 ft 359 kts 242°
2026-05-05 06:03 34.32158 -116.70927 23981 ft 359 kts 242°
2026-05-05 06:03 34.31076 -116.73633 23984 ft 358 kts 242°
2026-05-05 06:04 34.29980 -116.76362 23990 ft 359 kts 242°
2026-05-05 06:04 34.28892 -116.79064 23985 ft 360 kts 242°
2026-05-05 06:04 34.27792 -116.81800 23984 ft 359 kts 242°
2026-05-05 06:04 34.26707 -116.84490 23782 ft 361 kts 242°
2026-05-05 06:05 34.25603 -116.87227 23343 ft 359 kts 242°
2026-05-05 06:05 34.24519 -116.89912 22829 ft 357 kts 242°
2026-05-05 06:05 34.23432 -116.92596 22333 ft 354 kts 242°
2026-05-05 06:05 34.22352 -116.95266 21864 ft 351 kts 243°
2026-05-05 06:06 34.21361 -116.97923 21384 ft 350 kts 246°
2026-05-05 06:06 34.20504 -117.00658 20907 ft 348 kts 249°
2026-05-05 06:06 34.19744 -117.03427 20445 ft 346 kts 250°
2026-05-05 06:06 34.18993 -117.06195 19925 ft 346 kts 250°
2026-05-05 06:07 34.18250 -117.08929 19430 ft 345 kts 250°
2026-05-05 06:07 34.17509 -117.11668 18939 ft 344 kts 250°
2026-05-05 06:07 34.16772 -117.14387 18452 ft 343 kts 250°
2026-05-05 06:07 34.16029 -117.17112 17978 ft 341 kts 250°
2026-05-05 06:08 34.15279 -117.19842 17503 ft 340 kts 250°
2026-05-05 06:08 34.14537 -117.22540 17062 ft 338 kts 250°
2026-05-05 06:08 34.13807 -117.25187 16635 ft 336 kts 250°
2026-05-05 06:08 34.13068 -117.27865 16185 ft 335 kts 250°
2026-05-05 06:09 34.12336 -117.30521 15723 ft 334 kts 251°
2026-05-05 06:09 34.11608 -117.33153 15273 ft 333 kts 251°
2026-05-05 06:09 34.10874 -117.35805 14816 ft 332 kts 251°
2026-05-05 06:09 34.10162 -117.38444 14323 ft 333 kts 252°
2026-05-05 06:10 34.09491 -117.41130 13874 ft 331 kts 253°
2026-05-05 06:10 34.08841 -117.43767 13426 ft 331 kts 253°
2026-05-05 06:10 34.08184 -117.46413 13062 ft 326 kts 253°
2026-05-05 06:10 34.07537 -117.49009 12760 ft 321 kts 253°
2026-05-05 06:11 34.06903 -117.51529 12462 ft 316 kts 253°
2026-05-05 06:11 34.06256 -117.54067 12038 ft 314 kts 253°
2026-05-05 06:11 34.05615 -117.56574 11617 ft 313 kts 253°
2026-05-05 06:11 34.04976 -117.59068 11299 ft 309 kts 253°
2026-05-05 06:12 34.04353 -117.61501 10923 ft 306 kts 253°
2026-05-05 06:12 34.03735 -117.63913 10436 ft 295 kts 253°
2026-05-05 06:12 34.03143 -117.66220 10135 ft 279 kts 252°
2026-05-05 06:12 34.02594 -117.68415 10053 ft 273 kts 254°
2026-05-05 06:13 34.02177 -117.70641 9966 ft 273 kts 259°
2026-05-05 06:13 34.01915 -117.72890 9742 ft 272 kts 262°
2026-05-05 06:13 34.01694 -117.75156 9339 ft 274 kts 262°
2026-05-05 06:13 34.01476 -117.77436 9044 ft 272 kts 262°
2026-05-05 06:14 34.01256 -117.79699 8744 ft 270 kts 262°
2026-05-05 06:14 34.01040 -117.81914 8446 ft 268 kts 262°
2026-05-05 06:14 34.00821 -117.84159 8079 ft 270 kts 262°
2026-05-05 06:14 34.00606 -117.86372 7796 ft 267 kts 262°
2026-05-05 06:15 34.00387 -117.88612 7439 ft 267 kts 262°
2026-05-05 06:15 34.00170 -117.90821 7176 ft 264 kts 262°
2026-05-05 06:15 33.99955 -117.93014 6848 ft 264 kts 262°
2026-05-05 06:15 33.99740 -117.95207 6576 ft 262 kts 262°
2026-05-05 06:16 33.99527 -117.97366 6248 ft 262 kts 262°
2026-05-05 06:16 33.99313 -117.99541 5957 ft 260 kts 262°
2026-05-05 06:16 33.99112 -118.01711 5634 ft 261 kts 263°
2026-05-05 06:16 33.98951 -118.03874 5431 ft 259 kts 264°
2026-05-05 06:17 33.98772 -118.06054 5305 ft 259 kts 263°
2026-05-05 06:17 33.98572 -118.08188 5179 ft 261 kts 262°
2026-05-05 06:17 33.98348 -118.10384 4916 ft 262 kts 262°
2026-05-05 06:17 33.98119 -118.12537 4572 ft 263 kts 262°
2026-05-05 06:18 33.97882 -118.14731 4221 ft 264 kts 262°
2026-05-05 06:18 33.97647 -118.16908 3876 ft 264 kts 262°
2026-05-05 06:18 33.97412 -118.19100 3527 ft 266 kts 262°
2026-05-05 06:18 33.97175 -118.21328 3174 ft 267 kts 263°
2026-05-05 06:19 33.96943 -118.23523 2825 ft 268 kts 262°
2026-05-05 06:19 33.96711 -118.25736 2468 ft 260 kts 262°
2026-05-05 06:19 33.96491 -118.27844 2127 ft 249 kts 263°
2026-05-05 06:19 33.96283 -118.29840 1797 ft 229 kts 263°
2026-05-05 06:20 33.96094 -118.31658 1501 ft 211 kts 263°
2026-05-05 06:20 33.95918 -118.33353 1289 ft 192 kts 262°
2026-05-05 06:20 33.95761 -118.34875 1066 ft 175 kts 263°
2026-05-05 06:20 33.95616 -118.36272 796 ft 163 kts 263°
2026-05-05 06:21 33.95480 -118.37586 573 ft 154 kts 263°
2026-05-05 06:21 33.95353 -118.38821 373 ft 145 kts 263°
2026-05-05 06:21 33.95233 -118.39995 177 ft 138 kts 263°
2026-05-05 06:21 33.95118 -118.41092 129 ft 119 kts 263°
2026-05-05 06:22 33.95040 -118.41872 126 ft 69 kts 263°
2026-05-05 06:22 33.94990 -118.42258 125 ft 31 kts 250°
2026-05-05 06:22 33.94894 -118.42435 123 ft 18 kts 223°
2026-05-05 06:22 33.94792 -118.42492 121 ft 16 kts 175°
2026-05-05 06:23 33.94672 -118.42474 120 ft 17 kts 173°
2026-05-05 06:23 33.94586 -118.42432 119 ft 12 kts 111°
2026-05-05 06:23 33.94593 -118.42320 119 ft 13 kts 82°
2026-05-05 06:23 33.94605 -118.42205 120 ft 13 kts 83°
2026-05-05 06:24 33.94616 -118.42089 122 ft 14 kts 84°
2026-05-05 06:24 33.94627 -118.41972 123 ft 14 kts 86°
2026-05-05 06:24 33.94635 -118.41855 124 ft 14 kts 83°
2026-05-05 06:24 33.94649 -118.41717 126 ft 20 kts 83°
2026-05-05 06:25 33.94666 -118.41547 127 ft 20 kts 83°
2026-05-05 06:25 33.94684 -118.41381 128 ft 20 kts 83°
2026-05-05 06:25 33.94706 -118.41221 130 ft 18 kts 70°
2026-05-05 06:25 33.94735 -118.41070 131 ft 18 kts 83°
2026-05-05 06:26 33.94751 -118.40913 130 ft 19 kts 83°
2026-05-05 06:26 33.94768 -118.40749 129 ft 20 kts 83°
2026-05-05 06:26 33.94785 -118.40578 127 ft 21 kts 83°
2026-05-05 06:26 33.94804 -118.40398 126 ft 21 kts 83°
2026-05-05 06:27 33.94830 -118.40220 126 ft 21 kts 82°
2026-05-05 06:27 33.94807 -118.40006 125 ft 11 kts 173°
2026-05-05 06:27 33.94738 -118.40020 126 ft 6 kts 228°
2026-05-05 06:28 33.94732 -118.40054 127 ft 2 kts 263°
2026-05-05 06:28 33.94732 -118.40063 127 ft 1 kts 263°
2026-05-05 06:28 33.94731 -118.40065 127 ft 0 kts 263°